Regional Weather Roundup
Issued by NWS Wakefield, VA

Home | Current Version | Previous Version | Graphics & Text | Print | Product List | Glossary On
Versions: 1 2 3 4 5 6 7 8 9 10 11 12 13 14 15 16 17 18 19 20 21 22 23 24 25 26 27 28 29 30 31 32 33 34 35 36 37 38 39 40 41 42 43 44 45 46 47 48 49 50
000
ASUS41 KAKQ 291210
RWRAKQ

REGIONAL WEATHER ROUNDUP
NATIONAL WEATHER SERVICE WAKEFIELD VA
800 AM EDT TUE JUL 29 2014

Note: "fair" indicates few or no clouds below 12,000 feet with no
significant weather and/or obstructions to visibility. * = Denotes
station may not report precipitation (e.g., rain,snow,etc.),
thunder or fog.

VAZ042-051-052>054-056-291300-
NORTHERN VIRGINIA

CITY           SKY/WX    TMP DP  RH WIND       PRES   REMARKS
WASH NATIONAL  MOSUNNY   67  51  56 NW15      29.94R
DULLES         MOSUNNY   61  51  70 W8        29.95R
FORT BELVOIR   SUNNY     64  53  68 NW9       29.95R
QUANTICO       SUNNY     64  53  67 NW8       29.96R
FREDERICKSBRG* SUNNY     65  54  66 NW10      29.95R
STAFFORD*      SUNNY     62  56  81 NW8       30.00R
WARRENTON      SUNNY     64  59  86 CALM      29.96R
CULPEPER*      SUNNY    N/A N/A N/A CALM      29.97R
MANASSAS*      SUNNY     63  55  77 CALM      29.95S
LEESBURG*      SUNNY     61  54  77 W9        29.95S
WINCHESTER     SUNNY     59  50  72 NW9       29.97R
$$

VAZ048-049-060>072-079>083-291300-
CENTRAL AND SOUTH CENTRAL VIRGINIA...AND NORTH CENTRAL NORTH CAROLINA

CITY           SKY/WX    TMP DP  RH WIND       PRES   REMARKS
RICHMOND       PTSUNNY   67  54  63 N10       29.95R
CHESTERFIELD*  CLOUDY    66  46  48 N6        29.97R
HANOVER        CLOUDY    64  54  69 VRB5      29.97R
TAPPAHANNOCK*  SUNNY     64  54  68 W3        29.95R
CHARLOTTSVILLE SUNNY     61  53  75 NW5       29.98R
ORANGE*        SUNNY     61  52  72 NW3       29.97F
LOUISA*        SUNNY     61  55  82 CALM      29.96R
FARMVILLE*     PTSUNNY   63  54  72 CALM      29.96R
SOUTH HILL*    CLOUDY    66  59  77 N5        30.01S
ROANOKE RAPIDS NOT AVBL
RALEIGH        PTSUNNY   68  57  68 NE3       29.96R
$$

VAZ088>098-291300-
SOUTHEAST VIRGINIA

CITY           SKY/WX    TMP DP  RH WIND       PRES   REMARKS
NORFOLK        MOSUNNY   71  61  70 VRB7      29.91R
VIRGINIA BEACH MOSUNNY   72  63  73 N10       29.89S
NORFOLK NAVAL  MOSUNNY   72  61  68 NW13      29.92S
WEST POINT*    PTSUNNY   67  56  67 NW6       29.95R
NEWPORT NEWS   PTSUNNY   73  60  63 N10       29.92R
LANGLEY AFB    MOSUNNY   70  61  72 NW9       29.91R
FORT EUSTIS    CLOUDY    68  58  69 N8        29.91R
WILLIAMSBURG*  PTSUNNY   68  61  77 NW7       29.94R
FRANKLIN*      CLOUDY    64  59  82 N3        29.93S
WAKEFIELD      CLOUDY    66  58  75 CALM      29.94R
$$

VAZ020-022-025-037-045-291300-
WESTERN AND SOUTHWEST VIRGINIA

CITY           SKY/WX    TMP DP  RH WIND       PRES   REMARKS
STAUNTON*      MOSUNNY   56  52  88 CALM      30.02R
HOT SPRINGS VA MOSUNNY   51  48  91 W5        30.06R
LYNCHBURG      CLOUDY    63  56  78 CALM      30.00R
DANVILLE       CLOUDY    66  59  78 CALM      29.98R
MARTINSVILLE   CLOUDY    62  60  91 CALM      30.02R
ROANOKE        PTSUNNY   63  56  78 CALM      30.01R
BLACKSBURG     MOSUNNY   61  61 100 CALM      30.05R
DUBLIN*        CLOUDY    62  59  90 W5        30.04R
MARION*        PTSUNNY  N/A N/A N/A W6        30.07R
HILLSVILLE*    MOSUNNY   57  54  90 W3        30.04R
RICHLANDS*     CLOUDY    60  58  92 CALM      30.05R FOG
WISE*          CLOUDY    59  55  88 W3        30.07R
ABINGDON*      PTSUNNY   61  59  91 NW3       30.04R
$$

MDZ021>025-VAZ099-100-291300-
SOUTHERN MARYLAND AND THE DELMARVA PENINSULA

CITY           SKY/WX    TMP DP  RH WIND       PRES   REMARKS
PATUXENT RIVER MOSUNNY   67  58  72 NW8       29.92R
BAY BRIDGE APT   N/A     66  57  72 NW13      29.92R
LEONARDTOWN    MOSUNNY   63  55  77 W3        29.94R
DOVER          SUNNY     66  58  75 NW12      29.89R
GEORGETOWN     SUNNY     67  58  72 VRB5      29.91R
EASTON         MOSUNNY   70  59  68 CALM      29.95R
CAMBRIDGE      MOSUNNY   72  59  64 N5        29.91R
SALISBURY      SUNNY    N/A N/A N/A MISG        N/A
OCEAN CITY     SUNNY     68  60  75 NW6       29.90R
WALLOPS ISLAND PTSUNNY   70  60  70 N9        29.91R
ACCOMACK*        N/A     70  59  68 NE7       29.90S
$$

NCZ012>017-030>032-291300-
EASTERN NORTH CAROLINA

CITY           SKY/WX    TMP DP  RH WIND       PRES   REMARKS
ELIZABETH CITY CLOUDY    72  62  71 N12       29.90R
AHOSKIE*       MOSUNNY   66  60  79 N6        29.94R
EDENTON*       PTSUNNY   67  61  80 N9        29.91R
CURRITUCK*     SUNNY     70  60  70 NW5       29.90S
KILL DEVIL HLS MOSUNNY   74  66  75 N3        29.88R
MANTEO         NOT AVBL
CAPE HATTERAS  SUNNY     78  67  68 NE8       29.87R
GOLDSBORO      CLOUDY    69  63  81 N7        29.91R
WASHINGTON     MOSUNNY   68  60  77 N6        29.92R
GREENVILLE     CLOUDY    68  63  83 N5        29.95R
NEW BERN       PTSUNNY   72  62  71 N7        29.92R
WILMINGTON     MOSUNNY   72  63  73 N10       29.89S
$$

VAZ048-291300-
ELSEWHERE

CITY           SKY/WX    TMP DP  RH WIND       PRES   REMARKS
HARRISBURG PA  SUNNY     63  56  78 NW10      29.91R
BALTIMORE      CLOUDY    63  55  75 W7        29.92R
ANNAPOLIS      CLOUDY    65  57  75 W6        29.92R
ANDREWS AFB    PTSUNNY   65  54  66 NW12      29.93R
WILMINGTON DE  MOSUNNY   65  57  75 NW7       29.90R
PHILADELPHIA   MOSUNNY   66  55  67 NW8       29.89R
WILDWOOD NJ*   SUNNY     66  55  68 NW5       29.90R
ATLANTIC CITY  SUNNY     65  58  78 NW10      29.88R
HENDERSON NC   CLOUDY    64  58  81 CALM      29.97R
GREENSBORO     MOSUNNY   66  57  72 N3        29.98R
ROCKY MOUNT    CLOUDY    68  59  73 N7        29.94R
FAYETTEVILLE   CLOUDY    72  58  61 N12       29.93R
CHARLOTTE      PTSUNNY   69  58  67 N5        29.98R
$$

VAZ100-291300-
MARINE

STATION/POSITION TIME  TEMP    WIND        PRES    WAVE   SWELL
                       AIR SEA DIR/SP/G            HT/PER HT/PER
                 (UTC) (F)     (DEG/KT/KT) (MB)    (FT/S) (FT/S)
44066 TX TWR #4  1200   70 74  310/ 10/ 12 1009.5R   5/ 6   3/ 6
CAPE MAY NJ      1200   69 78  340/  7/ 12 1011.4R
LEWES DE         1200   67 72  310/ 13/ 14 1011.7S
15NM E FENWICK I 1200   70 73              1011.9R   3/ 8
OCEAN-CITY-INLET 1200   67 73  320/  7/  9 1011.9R
WACHAPREAGUE VA  1200   69 78   10/  5/  8 1012.4F
THOMAS POINT MD  1200   65 78  320/ 12/ 14 1013.5R
GOOSES REEF MD   1200   68     330/ 14/ 17 1013.4R
COVE POINT MD    1200   66     330/ 10/ 15 1013.0R
SOLOMONS ISLAND  1200      79                N/A
BISHOPS HEAD MD  1200   69 74  340/ 10/ 13 1012.2S
PINEY POINT MD   1200          340/ 14/ 17   N/A
POTOMAC MD       1200   68     340/ 16/ 19 1012.4S
CAMBRIDGE MD     1200   69 78  350/  6/  8 1012.5R
LEWISETTA VA     1200   69 77  340/  7/ 11 1013.0R
RAPPAHANNOCK LGT 1200          320/ 16/ 18 1013.1R
STINGRAY PT      1200   69     330/ 14/ 16 1013.6R
YORK RVR RNG VA  1200   69     360/ 14/ 17 1012.2F
YORKTOWN VA      1200   67 79  320/ 11/ 13 1013.0R
JAMESTOWN VA     1200   67     360/  6/  8   N/A
DOMINION TERM VA 1200   70     350/  9/ 13 1013.0R
KIPTOPEKE VA     1200      81  360/ 11/ 15   N/A
CHES BAY BRIDGE  1200   72 78  330/ 14/ 17 1012.0S
CAPE HENRY VA    1200   71     330/ 13/ 15 1011.2S
WILLOUBY STN VA  1200          350/ 11/ 13 1012.0F
S CRANEY ISL VA  1200          310/ 10/ 12 1012.8S
CAPE HENRY BUOY  1200      76                N/A     2/ 8
1ST LANDING BUOY 1200   72     340/ 12/ 16 1012.2S
CAPE CHARLES BUO 1200      73                N/A     2/ 8
OFFSHORE WE BUOY 1200      77                N/A     3/ 8
64NM E OF VA BCH 1200   74 78  350/ 12/ 16 1011.1R   3/ 5   2/ 7
DUCK PIER NC     1200   71 62  330/ 12/ 13 1011.2R
44056 DUCK FRF   1200                        N/A     3/ 5
OREGON INLET NC  1200   76 79  360/  7/ 10 1011.7R
HATTERAS NC      1200   78 81   20/  9/ 13 1011.8R
DIAMOND SHLS NC  1200          VRB 10/ 12  1010.9R   3/ 8   3/ 8
CAPE LOOKOUT NC  1100   75      20/  9/ 12 1011.2R
$$



USA.gov is the U.S. government's official web portal to all federal, state and local government web resources and services.